Surface/Atmospheric History
02/08/2018 19:44  to  2/9/2018 19:44
Change End Date:
To complete the export process:
1) Select all of the data below
2) Copy the data to the clipboard
3) Open a word processor such as Notepad
4) Paste the data into the word processor
5) Save the file

Date/Time (MST), SfStat, SfTemp, PvtTemp, SubTemp, AirTemp, RH, Dewpoint, AvgWindSpeed, GustWindSpeed, WindDirection, PrecipType, PrecipIntenisity
02/09/2018 19:35, Ice Watch , 16.9 , , 31, 2, 73, -5, 2, 3, SW, Yes,
02/09/2018 19:35, Ice Watch , 16.9 , , 31, 2, 73, -5, 2, 3, SW, Yes,
02/09/2018 19:25, Ice Watch , 16.7 , , 31, 2, 73, -5, 2, 2, S, Yes,
02/09/2018 19:20, Ice Watch , 17.1 , , 31, 1, 73, -5, 2, 2, S, Yes,
02/09/2018 19:15, Ice Watch , 16.9 , , 31, 1, 73, -5, 2, 3, SE, Yes,
02/09/2018 19:06, Ice Watch , 17.1 , , 31, 1, 72, -6, 2, 4, SE, Yes,
02/09/2018 19:05, Ice Watch , 17.1 , , 31, 1, 72, -6, 3, 4, SE, Yes,
02/09/2018 18:55, Ice Watch , 17.1 , , 31, 1, 72, -6, 4, 4, E, Yes,
02/09/2018 18:50, Ice Watch , 17.2 , , 31, 1, 72, -6, 3, 4, SE, Yes,
02/09/2018 18:45, Ice Watch , 17.2 , , 31, 1, 72, -6, 3, 4, SE, Yes,
02/09/2018 18:35, Ice Watch , 17.4 , , 31, 1, 72, -6, 4, 6, SE, Yes,
02/09/2018 18:35, Ice Watch , 17.4 , , 31, 1, 72, -6, 4, 6, SE, Yes,
02/09/2018 18:25, Ice Watch , 17.6 , , 31, 1, 71, -6, 4, 6, SE, Yes,
02/09/2018 18:20, Ice Watch , 18 , , 31, 1, 71, -6, 4, 6, SE, Yes,
02/09/2018 18:15, Ice Watch , 18 , , 31, 1, 71, -6, 6, 6, SE, Yes,
02/09/2018 18:05, Ice Watch , 18.1 , , 31, 1, 71, -7, 4, 5, SE, Yes,
02/09/2018 18:04, Ice Watch , 18.1 , , 31, 0, 71, -7, 4, 5, SE, Yes,
02/09/2018 17:55, Ice Watch , 18.5 , , 31, 0, 70, -7, 4, 4, SE, None, None
02/09/2018 17:50, Ice Watch , 18.7 , , 31, 0, 70, -7, 3, 5, SE, Yes,
02/09/2018 17:45, Ice Watch , 18.5 , , 31, 0, 70, -7, 4, 5, SE, None, None
02/09/2018 17:35, Ice Watch , 18.7 , , 31, 0, 69, -7, 2, 3, SE, Yes,
02/09/2018 17:35, Ice Watch , 18.7 , , 31, 0, 69, -7, 2, 3, SE, Yes,
02/09/2018 17:25, Ice Watch , 18.9 , , 31, 0, 69, -7, 2, 3, SE, None, None
02/09/2018 17:20, Ice Watch , 18.9 , , 31, 0, 68, -8, 2, 3, SE, Yes,
02/09/2018 17:14, Ice Watch , 19 , , 31, 0, 68, -8, 2, 4, E, Yes,
02/09/2018 17:05, Ice Watch , 19.2 , , 31, 0, 68, -8, 3, 4, E, Yes,
02/09/2018 17:04, Ice Watch , 19.2 , , 31, 1, 68, -8, 3, 4, E, Yes,
02/09/2018 16:54, Ice Watch , 19.4 , , 31, 1, 67, -8, 3, 4, E, None, None
02/09/2018 16:50, Ice Watch , 19.4 , , 31, 1, 66, -8, 2, 4, E, None, None
02/09/2018 16:44, Ice Watch , 19.4 , , 31, 1, 66, -8, 2, 3, E, None, None
02/09/2018 16:35, Ice Watch , 19.6 , , 31, 1, 65, -8, 2, 3, SE, Yes,
02/09/2018 16:34, Ice Watch , 19.6 , , 31, 1, 65, -8, 2, 3, SE, Yes,
02/09/2018 16:24, Ice Watch , 19.9 , , 31, 2, 64, -7, 2, 4, E, Yes,
02/09/2018 16:20, Ice Watch , 20.1 , , 31, 2, 64, -7, 2, 2, SE, Yes,
02/09/2018 16:14, Ice Watch , 20.3 , , 31, 2, 64, -7, 1, 2, E, Yes,
02/09/2018 16:05, Ice Watch , 20.5 , , 31, 2, 64, -7, 2, 4, E, Yes,
02/09/2018 16:04, Ice Watch , 20.5 , , 31, 2, 64, -7, 2, 4, E, Yes,
02/09/2018 15:54, Ice Watch , 20.7 , , 31, 2, 64, -7, 3, 6, E, Yes,
02/09/2018 15:50, Ice Watch , 20.7 , , 31, 2, 64, -8, 4, 6, E, Yes,
02/09/2018 15:44, Ice Watch , 20.7 , , 31, 2, 64, -7, 4, 6, E, Yes,
02/09/2018 15:35, Ice Watch , 20.7 , , 31, 2, 63, -8, 4, 6, E, Yes,
02/09/2018 15:34, Ice Watch , 20.7 , , 31, 2, 63, -8, 4, 6, E, Yes,
02/09/2018 15:24, Ice Watch , 21.2 , , 31, 2, 60, -8, 3, 4, E, Yes,
02/09/2018 15:20, Ice Watch , 21.2 , , 31, 3, 59, -8, 1, 4, SE, None, None
02/09/2018 15:14, Ice Watch , 21.4 , , 31, 4, 57, -8, 3, 4, E, Yes,
02/09/2018 15:05, Ice Watch , 21.6 , , 31, 4, 56, -8, 1, 4, E, Yes,
02/09/2018 15:04, Ice Watch , 21.6 , , 31, 4, 55, -8, 1, 4, E, Yes,
02/09/2018 14:54, Ice Watch , 21.9 , , 31, 5, 54, -7, 2, 4, NE, Yes,
02/09/2018 14:50, Ice Watch , 22.1 , , 31, 6, 54, -7, 2, 4, E, Yes,
02/09/2018 14:44, Ice Watch , 22.3 , , 31, 6, 54, -7, 3, 4, NE, Yes,
02/09/2018 14:35, Ice Watch , 22.3 , , 31, 6, 54, -7, 3, 6, NE, Yes,
02/09/2018 14:34, Ice Watch , 22.3 , , 31, 6, 54, -7, 3, 6, NE, Yes,
02/09/2018 14:24, Ice Watch , 21.6 , , 31, 5, 54, -8, 4, 6, NE, Yes,
02/09/2018 14:20, Ice Watch , 21.6 , , 31, 5, 54, -8, 4, 5, NE, Yes,
02/09/2018 14:13, Ice Watch , 21.6 , , 31, 5, 53, -8, 1, 3, E, Yes,
02/09/2018 14:05, Ice Watch , 21.6 , , 31, 5, 54, -8, 3, 4, NE, Yes,
02/09/2018 14:03, Ice Watch , 21.9 , , 31, 5, 53, -8, 3, 4, NE, Yes,
02/09/2018 13:53, Ice Watch , 21.9 , , 31, 7, 53, -7, 2, 4, NE, Yes,
02/09/2018 13:50, Ice Watch , 21.4 , , 31, 6, 53, -7, 1, 4, E, Yes,
02/09/2018 13:43, Ice Watch , 21.2 , , 31, 6, 54, -7, 2, 4, NE, Yes,
02/09/2018 13:35, Ice Watch , 21 , , 31, 6, 54, -7, 3, 4, NE, Yes,
02/09/2018 13:33, Ice Watch , 21.2 , , 31, 6, 54, -7, 2, 4, NE, Yes,
02/09/2018 13:23, Ice Watch , 21.2 , , 31, 6, 54, -7, 2, 4, NE, Yes,
02/09/2018 13:20, Ice Watch , 21.4 , , 31, 6, 54, -7, 4, 4, NE, Yes,
02/09/2018 13:13, Ice Watch , 21.6 , , 31, 6, 54, -7, 3, 4, NE, Yes,
02/09/2018 13:05, Ice Watch , 21.6 , , 31, 6, 55, -6, 2, 3, NE, Yes,
02/09/2018 13:03, Ice Watch , 21.6 , , 31, 6, 55, -6, 1, 2, NE, Yes,
02/09/2018 12:53, Ice Watch , 21.7 , , 31, 6, 56, -6, 2, 2, NE, Yes,
02/09/2018 12:50, Ice Watch , 22.1 , , 31, 7, 57, -5, 0, 2, NE, Yes,
02/09/2018 12:43, Ice Watch , 22.3 , , 31, 7, 59, -4, 0, 2, E, Yes,
02/09/2018 12:35, Ice Watch , 22.5 , , 31, 6, 62, -5, 2, 3, NE, Yes,
02/09/2018 12:33, Ice Watch , 22.5 , , 31, 5, 62, -5, 2, 3, NE, Yes,
02/09/2018 12:23, Ice Watch , 23 , , 31, 4, 65, -5, 2, 3, NE, Yes,
02/09/2018 12:20, Ice Watch , 23.7 , , 31, 3, 65, -5, 1, 4, N, Yes,
02/09/2018 12:13, Ice Watch , 23.7 , , 31, 4, 66, -5, 2, 4, NE, Yes,
02/09/2018 12:05, Ice Watch , 23.7 , , 31, 4, 68, -4, 2, 5, NE, Yes,
02/09/2018 12:03, Ice Watch , 23.5 , , 31, 4, 69, -4, 2, 5, NE, Yes,
02/09/2018 11:53, Ice Watch , 23.2 , , 31, 2, 70, -5, 4, 6, NE, Yes,
02/09/2018 11:50, Ice Watch , 23 , , 31, 2, 71, -5, 4, 6, NE, Yes,
02/09/2018 11:43, Ice Watch , 22.8 , , 31, 2, 72, -5, 3, 5, NE, Yes,
02/09/2018 11:35, Ice Watch , 22.6 , , 31, 2, 73, -5, 4, 5, NE, Yes,
02/09/2018 11:33, Ice Watch , 22.6 , , 31, 2, 73, -5, 4, 4, NE, Yes,
02/09/2018 11:23, Ice Watch , 22.5 , , 31, 1, 74, -5, 3, 4, NE, Yes,
02/09/2018 11:20, Ice Watch , 22.3 , , 31, 1, 74, -5, 2, 4, N, Yes,
02/09/2018 11:13, Ice Watch , 21.9 , , 31, 0, 74, -6, 3, 4, N, Yes,
02/09/2018 11:05, Ice Watch , 22.1 , , 31, 0, 74, -7, 4, 4, N, Yes,
02/09/2018 11:02, Ice Watch , 21.9 , , 31, 0, 74, -7, 4, 4, N, Yes,
02/09/2018 10:52, Ice Watch , 21.9 , , 31, 0, 74, -6, 4, 4, N, Yes,
02/09/2018 10:50, Ice Watch , 22.1 , , 31, 0, 74, -6, 3, 4, N, Yes,
02/09/2018 10:42, Ice Watch , 22.1 , , 31, 0, 75, -6, 4, 4, N, Yes,
02/09/2018 10:35, Ice Watch , 22.3 , , 31, 1, 75, -5, 4, 4, N, Yes,
02/09/2018 10:32, Ice Watch , 22.1 , , 31, 1, 75, -5, 3, 4, N, Yes,
02/09/2018 10:22, Ice Watch , 21.9 , , 31, 2, 76, -4, 1, 3, N, Yes,
02/09/2018 10:20, Ice Watch , 21.9 , , 31, 1, 76, -5, 2, 3, N, Yes,
02/09/2018 10:12, Ice Watch , 21.6 , , 31, 1, 76, -5, 1, 3, NE, Yes,
02/09/2018 10:05, Ice Watch , 21.6 , , 31, 1, 76, -5, 2, 4, NE, Yes,
02/09/2018 10:02, Ice Warning , 21.6 , , 31, 1, 76, -5, 2, 4, NE, Yes,
02/09/2018 09:52, Ice Warning , 21.7 , , 31, 1, 76, -5, 2, 3, N, Yes,
02/09/2018 09:50, Ice Warning , 21.6 , , 31, 1, 76, -5, 0, 2, NE, Yes,
02/09/2018 09:42, Ice Warning , 21.9 , , 31, 0, 76, -5, 1, 2, N, Yes,
02/09/2018 09:35, Ice Warning , 21.6 , , 31, 0, 76, -6, 1, 2, N, Yes,
02/09/2018 09:32, Ice Warning , 21.4 , , 31, 0, 76, -6, 1, 2, NE, Yes,
02/09/2018 09:22, Ice Warning , 21.2 , , 31, 0, 76, -6, 2, 3, NW, Yes,
02/09/2018 09:20, Ice Warning , 21.2 , , 31, 0, 76, -6, 1, 3, NW, Yes,
02/09/2018 09:12, Ice Warning , 21.2 , , 31, -1, 76, -6, 2, 4, NW, Yes,
02/09/2018 09:05, Ice Warning , 20.8 , , 31, -1, 76, -7, 2, 3, N, Yes,
02/09/2018 09:02, Ice Warning , 21 , , 31, -1, 76, -7, 1, 4, NE, Yes,
02/09/2018 08:52, Ice Warning , 20.7 , , 31, -2, 76, -7, 2, 3, NE, Yes,
02/09/2018 08:50, Ice Warning , 20.5 , , 31, -2, 76, -8, 2, 2, N, Yes,
02/09/2018 08:42, Ice Warning , 20.5 , , 31, -2, 76, -8, 2, 3, N, Yes,
02/09/2018 08:35, Ice Warning , 20.5 , , 31, -2, 76, -8, 2, 4, N, Yes,
02/09/2018 08:32, Ice Warning , 20.7 , , 31, -2, 76, -8, 2, 4, N, Yes,
02/09/2018 08:22, Ice Warning , 21.2 , , 31, -2, 76, -8, 4, 5, N, Yes,
02/09/2018 08:20, Ice Warning , 21.4 , , 31, -2, 76, -8, 3, 4, N, Yes,
02/09/2018 08:12, Ice Warning , 21.9 , , 31, -2, 76, -8, 2, 2, NE, Yes,
02/09/2018 08:05, Ice Warning , 22.6 , , 31, -3, 76, -8, 1, 2, N, Yes,
02/09/2018 08:01, Ice Warning , 22.8 , , 31, -3, 76, -8, 0, 2, N, Yes,
02/09/2018 07:51, Ice Warning , 24.8 , , 31, -3, 76, -9, 2, 3, NE, Yes,
02/09/2018 07:49, Ice Warning , 24.8 , , 31, -3, 76, -9, 2, 3, NE, Yes,
02/09/2018 07:41, Ice Warning , 24.6 , , 31, -3, 76, -9, 2, 2, N, Yes,
02/09/2018 07:35, Ice Warning , 24.6 , , 31, -3, 76, -9, 2, 3, NE, Yes,
02/09/2018 07:31, Ice Warning , 24.4 , , 31, -3, 76, -9, 1, 3, N, Yes,
02/09/2018 07:21, Ice Warning , 24.3 , , 31, -3, 76, -9, 0, 1, N, Yes,
02/09/2018 07:19, Ice Warning , 24.3 , , 31, -3, 76, -9, 0, 1, N, Yes,
02/09/2018 07:11, Ice Warning , 24.1 , , 31, -3, 76, -9, 0, 2, N, Yes,
02/09/2018 07:04, Ice Warning , 23.9 , , 31, -3, 77, -9, 1, 2, N, Yes,
02/09/2018 07:01, Ice Warning , 23.9 , , 31, -3, 77, -9, 1, 3, N, Yes,
02/09/2018 06:51, Ice Warning , 23.7 , , 31, -3, 77, -9, 2, 4, N, Yes,
02/09/2018 06:50, Ice Warning , 23.7 , , 31, -3, 77, -9, 2, 4, N, Yes,
02/09/2018 06:41, Ice Warning , 23.5 , , 31, -3, 77, -9, 4, 7, N, Yes,
02/09/2018 06:35, Ice Warning , 23.4 , , 31, -3, 77, -9, 6, 7, N, Yes,
02/09/2018 06:31, Ice Warning , 23.2 , , 31, -3, 77, -9, 6, 9, N, Yes,
02/09/2018 06:21, Ice Warning , 23 , , 31, -3, 77, -8, 7, 9, N, Yes,
02/09/2018 06:20, Ice Warning , 23 , , 31, -3, 77, -8, 7, 9, N, Yes,
02/09/2018 06:11, Ice Warning , 22.6 , , 31, -3, 77, -8, 7, 9, N, Yes,
02/09/2018 06:05, Ice Warning , 22.6 , , 31, -3, 77, -8, 8, 9, NE, Yes,
02/09/2018 06:01, Ice Warning , 22.6 , , 31, -2, 77, -8, 7, 9, N, Yes,
02/09/2018 05:51, Ice Warning , 22.1 , , 31, -2, 77, -7, 7, 9, NE, Yes,
02/09/2018 05:50, Ice Warning , 22.1 , , 31, -2, 77, -7, 7, 9, NE, Yes,
02/09/2018 05:41, Ice Warning , 21.7 , , 31, -1, 77, -6, 6, 6, N, Yes,
02/09/2018 05:35, Ice Warning , 21.7 , , 31, -1, 77, -6, 1, 3, NE, Yes,
02/09/2018 05:31, Ice Warning , 21.6 , , 31, -1, 77, -6, 2, 3, SE, Yes,
02/09/2018 05:21, Ice Warning , 21.6 , , 31, -1, 77, -7, 1, 4, SW, Yes,
02/09/2018 05:19, Ice Warning , 21.6 , , 31, -1, 77, -7, 2, 4, SW, Yes,
02/09/2018 05:11, Ice Warning , 21.6 , , 31, -1, 77, -7, 1, 6, N, Yes,
02/09/2018 05:05, Ice Warning , 21.4 , , 31, -1, 77, -7, 4, 9, SW, Yes,
02/09/2018 05:00, Ice Warning , 21.2 , , 31, -1, 77, -7, 6, 9, N, None, None
02/09/2018 04:50, Ice Warning , 21.2 , , 31, -1, 77, -7, 6, 9, NW, None, None
02/09/2018 04:50, Ice Warning , 21.2 , , 31, -1, 77, -7, 6, 9, NW, None, None
02/09/2018 04:40, Ice Warning , 21.2 , , 31, -1, 77, -6, 6, 7, NW, Yes,
02/09/2018 04:35, Ice Warning , 21.2 , , 31, -1, 77, -6, 6, 9, N, Yes,
02/09/2018 04:30, Ice Warning , 21 , , 31, -1, 77, -6, 7, 9, N, Yes,
02/09/2018 04:20, Ice Warning , 21 , , 31, 0, 78, -5, 6, 12, NW, Yes,
02/09/2018 04:20, Ice Warning , 21 , , 31, 0, 77, -5, 6, 12, NW, Yes,
02/09/2018 04:10, Ice Warning , 21 , , 31, 1, 78, -5, 6, 11, N, Yes,
02/09/2018 04:05, Ice Watch , 21 , , 31, 1, 78, -4, 6, 9, NW, Yes,
02/09/2018 04:00, Ice Watch , 21 , , 31, 1, 78, -4, 6, 7, NW, Yes,
02/09/2018 03:50, Ice Watch , 21 , , 31, 1, 78, -4, 4, 6, NW, None, None
02/09/2018 03:50, Ice Watch , 21 , , 31, 1, 78, -4, 4, 6, NW, None, None
02/09/2018 03:40, Ice Watch , 21 , , 31, 1, 78, -5, 4, 4, NW, Yes,
02/09/2018 03:35, Ice Watch , 20.7 , , 31, 0, 78, -5, 2, 4, N, None, None
02/09/2018 03:30, Ice Watch , 20.5 , , 31, 0, 78, -5, 3, 4, N, None, None
02/09/2018 03:20, Ice Watch , 20.3 , , 31, -1, 78, -6, 5, 6, NE, None, None
02/09/2018 03:20, Ice Watch , 20.3 , , 31, -1, 78, -6, 5, 6, NE, None, None
02/09/2018 03:10, Ice Watch , 20.3 , , 31, 0, 78, -5, 4, 6, N, None, None
02/09/2018 03:05, Ice Watch , 20.3 , , 31, 0, 78, -6, 4, 5, NE, None, None
02/09/2018 03:00, Ice Watch , 20.5 , , 31, 0, 78, -5, 3, 4, NE, None, None
02/09/2018 02:50, Ice Watch , 20.5 , , 31, 0, 78, -5, 4, 6, NE, None, None
02/09/2018 02:50, Ice Watch , 20.5 , , 31, 0, 78, -5, 4, 6, NE, None, None
02/09/2018 02:40, Ice Watch , 20.5 , , 31, 1, 78, -5, 5, 6, NE, Yes,
02/09/2018 02:35, Ice Watch , 20.5 , , 31, 1, 78, -4, 4, 6, NE, Yes,
02/09/2018 02:30, Ice Watch , 20.7 , , 31, 1, 78, -4, 5, 6, NE, Yes,
02/09/2018 02:20, Ice Watch , 20.8 , , 31, 2, 78, -3, 5, 6, E, Yes,
02/09/2018 02:20, Ice Watch , 21 , , 31, 2, 78, -3, 5, 6, E, Yes,
02/09/2018 02:09, Ice Watch , 20.8 , , 31, 2, 78, -3, 6, 7, E, Yes,
02/09/2018 02:05, Ice Watch , 20.8 , , 31, 2, 78, -3, 4, 6, NE, Yes,
02/09/2018 01:59, Ice Watch , 20.8 , , 31, 3, 78, -2, 4, 5, N, Yes,
02/09/2018 01:50, Ice Watch , 20.5 , , 31, 3, 78, -2, 3, 6, N, Yes,
02/09/2018 01:49, Ice Watch , 20.5 , , 31, 3, 78, -2, 4, 6, NE, Yes,
02/09/2018 01:39, Ice Watch , 20.5 , , 31, 3, 78, -2, 4, 4, NE, None, None
02/09/2018 01:35, Ice Watch , 20.5 , , 31, 3, 78, -2, 2, 4, N, Yes,
02/09/2018 01:29, Ice Watch , 20.5 , , 31, 3, 78, -2, 2, 4, NW, Yes,
02/09/2018 01:20, Ice Watch , 20.1 , , 31, 3, 78, -2, 2, 4, NW, Yes,
02/09/2018 01:19, Ice Watch , 20.1 , , 31, 3, 78, -2, 3, 4, NW, Yes,
02/09/2018 01:09, Ice Watch , 20.1 , , 31, 3, 78, -2, 3, 4, SE, Yes,
02/09/2018 01:05, Ice Watch , 19.9 , , 31, 3, 78, -2, 2, 2, E, Yes,
02/09/2018 00:59, Ice Watch , 19.8 , , 31, 3, 78, -2, 1, 3, W, Yes,
02/09/2018 00:50, Ice Watch , 19.6 , , 31, 3, 78, -2, 1, 4, N, Yes,
02/09/2018 00:49, Ice Watch , 19.6 , , 31, 3, 78, -2, 2, 4, N, Yes,
02/09/2018 00:39, Ice Watch , 19.4 , , 31, 2, 78, -3, 0, 2, NW, Yes,
02/09/2018 00:35, Ice Watch , 19.4 , , 31, 2, 78, -3, 1, 2, NW, Yes,
02/09/2018 00:29, Ice Watch , 19.4 , , 31, 2, 78, -3, 0, 1, NE, Yes,
02/09/2018 00:20, Ice Watch , 18.9 , , 31, 2, 78, -3, 0, 3, N, Yes,
02/09/2018 00:19, Ice Watch , 18.9 , , 31, 2, 78, -3, 0, 3, NW, Yes,
02/09/2018 00:09, Ice Watch , 19.2 , , 31, 2, 78, -3, 1, 4, N, Yes,
02/09/2018 00:05, Ice Watch , 18.9 , , 31, 2, 78, -3, 1, 2, N, Yes,
02/08/2018 23:59, Ice Watch , 19 , , 31, 2, 78, -3, 1, 2, N, Yes,
02/08/2018 23:50, Ice Watch , 18.9 , , 31, 3, 78, -3, 2, 4, W, Yes,
02/08/2018 23:49, Ice Watch , 18.9 , , 31, 2, 78, -3, 2, 5, NW, Yes,
02/08/2018 23:39, Ice Watch , 18.7 , , 31, 2, 78, -3, 3, 5, NW, None, None
02/08/2018 23:35, Ice Watch , 18.5 , , 31, 2, 78, -3, 0, 4, NW, Yes,
02/08/2018 23:29, Ice Watch , 18.3 , , 31, 2, 78, -3, 3, 5, NW, Yes,
02/08/2018 23:20, Ice Watch , 18.3 , , 31, 2, 78, -3, 2, 4, NW, Yes,
02/08/2018 23:19, Ice Watch , 18.1 , , 31, 2, 78, -3, 2, 4, NW, Yes,
02/08/2018 23:08, Ice Watch , 17.8 , , 31, 2, 78, -3, 3, 6, NW, Yes,
02/08/2018 23:05, Ice Watch , 17.8 , , 31, 2, 78, -3, 3, 6, N, Yes,
02/08/2018 22:58, Ice Watch , 17.4 , , 31, 2, 78, -3, 4, 7, N, Yes,
02/08/2018 22:50, Ice Watch , 17.4 , , 31, 2, 78, -3, 6, 7, N, Yes,
02/08/2018 22:48, Ice Watch , 17.6 , , 31, 3, 78, -2, 4, 7, N, Yes,
02/08/2018 22:38, Ice Watch , 17.8 , , 31, 2, 78, -3, 3, 7, NW, Yes,
02/08/2018 22:35, Ice Watch , 17.6 , , 31, 2, 78, -3, 2, 7, N, Yes,
02/08/2018 22:28, Ice Watch , 17.4 , , 31, 3, 78, -2, 4, 7, NW, Yes,
02/08/2018 22:20, Ice Watch , 17.4 , , 31, 3, 78, -2, 6, 7, N, None, None
02/08/2018 22:18, Ice Watch , 17.6 , , 31, 3, 78, -2, 6, 7, NW, Yes,
02/08/2018 22:08, Ice Watch , 17.8 , , 31, 3, 78, -2, 5, 6, NW, Yes,
02/08/2018 22:05, Ice Watch , 17.6 , , 31, 3, 78, -2, 2, 8, N, None, None
02/08/2018 21:58, Ice Watch , 17.4 , , 31, 3, 78, -2, 5, 11, N, None, None
02/08/2018 21:50, Ice Watch , 17.4 , , 31, 3, 78, -2, 9, 13, N, None, None
02/08/2018 21:48, Ice Watch , 17.6 , , 31, 3, 78, -2, 10, 13, N, None, None
02/08/2018 21:38, Ice Watch , 18 , , 31, 3, 78, -2, 6, 10, NW, Yes,
02/08/2018 21:35, Ice Watch , 17.8 , , 31, 4, 78, -1, 7, 10, NW, None, None
02/08/2018 21:28, Ice Watch , 18 , , 31, 4, 78, -1, 6, 9, N, Yes,
02/08/2018 21:20, Ice Watch , 18 , , 31, 3, 78, -2, 6, 9, N, None, None
02/08/2018 21:18, Ice Watch , 18 , , 31, 3, 78, -2, 6, 9, N, None, None
02/08/2018 21:08, Ice Watch , 18.1 , , 31, 4, 78, -1, 6, 10, N, Yes,
02/08/2018 21:05, Ice Watch , 18.3 , , 31, 4, 78, -1, 6, 8, N, Yes,
02/08/2018 20:58, Ice Watch , 18.3 , , 31, 4, 78, -1, 6, 10, NW, None, None
02/08/2018 20:50, Ice Watch , 18.3 , , 31, 4, 78, -1, 6, 10, NW, Yes,
02/08/2018 20:48, Ice Watch , 18.3 , , 31, 4, 78, -1, 5, 9, NW, Yes,
02/08/2018 20:38, Ice Watch , 18 , , 31, 4, 78, -1, 7, 10, N, Yes,
02/08/2018 20:35, Ice Watch , 18.1 , , 31, 4, 78, -1, 5, 9, NW, Yes,
02/08/2018 20:28, Ice Watch , 18.3 , , 31, 4, 78, -1, 6, 10, N, Yes,
02/08/2018 20:20, Ice Watch , 18.5 , , 31, 4, 78, -1, 6, 12, NW, Yes,
02/08/2018 20:18, Ice Watch , 18.5 , , 31, 5, 78, -1, 7, 12, NW, Yes,
02/08/2018 20:07, Ice Watch , 18.7 , , 31, 5, 78, -1, 8, 11, NW, Yes,
02/08/2018 20:05, Ice Watch , 18.9 , , 31, 5, 78, -1, 5, 11, W, Yes,
02/08/2018 19:57, Ice Watch , 18.9 , , 31, 5, 78, 0, 6, 11, NW, Yes,
02/08/2018 19:50, Ice Watch , 19.4 , , 31, 5, 78, 0, 6, 9, NW, Yes,
02/08/2018 19:47, Ice Watch , 19.4 , , 31, 5, 78, 0, 4, 9, W, Yes,
Change End Date:

Copyright © 1998-2015 Vaisala, Inc.
All Rights Reserved
Send comments about the data to:
SCAN Web ® is a registered trademark of Vaisala, Inc.
SCAN Web Version 6.0